Waarnemingen

Advertentie
Mijn weer
Charleville, Frankrijk (7075): temperatuur & dauwpunt: 10.07.2019 04:00:00 - 16.07.2019 04:00:00 (CEST)Charleville, Frankrijk (7075): temperatuur 5cm: 10.07.2019 04:00:00 - 16.07.2019 04:00:00 (CEST)Charleville, Frankrijk (7075): temperatuur -20cm & temperatuur -100cm: 10.07.2019 04:00:00 - 16.07.2019 04:00:00 (CEST)Charleville, Frankrijk (7075): windsnelheid & windstoten: 10.07.2019 04:00:00 - 16.07.2019 04:00:00 (CEST)Charleville, Frankrijk (7075): windrichting: 10.07.2019 04:00:00 - 16.07.2019 04:00:00 (CEST)Charleville, Frankrijk (7075): luchtdruk: 10.07.2019 04:00:00 - 16.07.2019 04:00:00 (CEST)Charleville, Frankrijk (7075): zicht: 10.07.2019 04:00:00 - 16.07.2019 04:00:00 (CEST)Charleville, Frankrijk (7075): Zonneschijnduur: 10.07.2019 04:00:00 - 16.07.2019 04:00:00 (CEST)Charleville, Frankrijk (7075): neerslag: 10.07.2019 04:00:00 - 16.07.2019 04:00:00 (CEST)
Datum & Tijd tt [°C] td [°C] tt 5cm [°C] tt -20cm [°C] tt -100cm [°C] ff [km/u] ff [kn] fx [km/u] fx [kn] dd ppp [hPa] vv [km] sd [min] rr [mm]
16.07.2019 04:00:00 6,2 5,3 3,2 18,6 16,7 0 0 6 4 N 1020,7 10 0 0,0
16.07.2019 03:00:00 8,2 7,3 6,4 18,7 16,8 5 3 9 5 NW 1020,8 14 0 0,0
16.07.2019 02:00:00 8,8 7,6 6,6 18,8 16,8 8 4 9 5 WNW 1020,7 16 0 0,0
16.07.2019 01:00:00 9,4 7,5 5,8 18,9 16,8 7 4 9 5 NW 1020,7 19 0 0,0
16.07.2019 00:00:00 10,6 8,0 6,5 18,9 16,8 0 0 10 6 N 1020,5 20 0 0,0
15.07.2019 23:00:00 13,8 8,8 10,9 19,0 16,7 8 4 19 11 N 1020,3 20 0 0,0
15.07.2019 22:00:00 15,1 9,5 13,2 19,0 16,7 14 7 27 15 NNO 1020,0 20 4 0,0
15.07.2019 21:00:00 16,0 9,6 15,1 18,9 16,8 13 7 28 15 NNO 1019,8 20 55 0,0
15.07.2019 20:00:00 17,8 10,2 18,2 18,8 16,8 16 9 33 18 N 1019,3 20 60 0,0
15.07.2019 19:00:00 18,8 10,4 20,0 18,7 16,8 22 12 33 18 N 1019,2 20 58 0,0
15.07.2019 18:00:00 20,0 11,0 21,7 18,6 16,8 19 10 34 18 N 1019,0 20 60 0,0
15.07.2019 17:00:00 19,7 10,7 23,9 18,4 16,7 11 6 31 17 N 1019,5 20 60 0,0
15.07.2019 16:00:00 19,0 10,8 24,6 18,2 16,7 18 10 34 19 N 1019,9 20 60 0,0
15.07.2019 15:00:00 18,9 10,7 25,2 18,1 16,8 20 11 31 17 N 1019,7 20 58 0,0
15.07.2019 14:00:00 19,3 11,1 22,3 18,0 16,8 14 8 31 17 N 1019,7 20 51 0,0
15.07.2019 13:00:00 18,3 10,9 21,2 18,0 16,8 12 7 28 15 NO 1020,0 20 12 0,0
15.07.2019 12:00:00 17,9 11,0 19,0 18,0 16,8 13 7 27 15 NNO 1019,9 20 22 0,0
15.07.2019 11:00:00 16,2 10,5 19,1 18,0 16,8 18 10 31 17 N 1020,1 20 35 0,0
15.07.2019 10:00:00 16,5 11,0 18,0 18,0 16,8 18 10 33 18 N 1020,2 20 52 0,0
15.07.2019 09:00:00 16,2 11,4 18,3 18,0 16,8 8 4 23 13 N 1020,0 20 60 0,0
15.07.2019 08:00:00 14,8 10,8 14,8 18,1 16,8 9 5 16 9 N 1019,9 20 60 0,0
15.07.2019 07:00:00 13,6 10,0 12,7 18,2 16,8 8 4 24 13 NW 1019,6 20 30 0,0
15.07.2019 06:00:00 13,8 10,0 13,6 18,2 16,8 14 7 26 14 NNO 1019,7 20 0 0,0
15.07.2019 05:00:00 14,3 10,7 14,1 18,3 16,8 15 8 26 14 N 1019,6 20 0 0,0
15.07.2019 04:00:00 14,6 11,2 14,1 18,3 16,8 17 9 24 13 N 1019,5 20 0 0,0
15.07.2019 03:00:00 14,6 11,6 13,1 18,4 16,8 13 7 19 10 N 1019,7 20 0 0,0
15.07.2019 02:00:00 13,2 11,4 12,3 18,5 16,8 11 6 14 7 NW 1020,1 20 0 0,0
15.07.2019 01:00:00 12,6 10,7 9,6 18,6 16,8 6 3 10 6 NW 1020,3 20 0 0,0
15.07.2019 00:00:00 12,2 10,3 10,8 18,6 16,8 8 4 11 6 NW 1020,3 20 0 0,0
14.07.2019 23:00:00 13,9 10,7 11,8 18,6 16,8 9 5 18 10 N 1020,1 20 0 0,0
14.07.2019 22:00:00 15,0 10,8 13,2 18,6 16,8 8 5 23 12 N 1019,7 20 0 0,0
14.07.2019 21:00:00 17,0 11,5 17,0 18,6 16,8 16 9 28 15 N 1019,5 20 3 0,0
14.07.2019 20:00:00 18,5 11,3 19,0 18,5 16,8 16 9 27 15 N 1019,2 20 24 0,0
14.07.2019 19:00:00 19,2 11,7 20,0 18,4 16,8 15 8 35 19 N 1019,0 20 26 0,0
14.07.2019 18:00:00 18,7 10,8 19,7 18,4 16,8 18 10 33 18 N 1019,1 20 1 0,0
14.07.2019 17:00:00 19,3 10,6 20,4 18,3 16,8 19 10 36 19 N 1019,0 20 18 0,0
14.07.2019 16:00:00 19,6 12,1 19,1 18,3 16,8 12 7 34 19 NNO 1019,1 20 10 0,0
14.07.2019 15:00:00 19,1 10,6 20,5 18,3 16,8 19 11 36 20 NO 1019,4 20 21 0,0
14.07.2019 14:00:00 18,0 10,4 18,1 18,3 16,8 14 8 36 19 NNO 1019,8 20 0 0,0
14.07.2019 13:00:00 16,4 10,5 16,4 18,3 16,8 14 8 30 16 N 1020,4 20 0 0,0
14.07.2019 12:00:00 15,1 10,9 16,1 18,4 16,8 19 11 31 17 N 1020,6 20 0 0,0
14.07.2019 11:00:00 15,6 10,8 16,6 18,4 16,8 13 7 22 12 N 1020,5 20 0 0,0
14.07.2019 10:00:00 15,4 10,8 15,7 18,5 16,8 11 6 27 14 NNO 1020,3 20 0 0,0
14.07.2019 09:00:00 14,9 11,3 14,8 18,6 16,8 13 7 26 14 N 1019,8 20 0 0,0
14.07.2019 08:00:00 14,5 11,5 12,5 18,6 16,8 5 3 25 13 N 1019,5 20 7 0,0
14.07.2019 07:00:00 12,4 10,6 8,7 18,7 16,8 0 0 9 5 N 1019,4 13 35 0,0
14.07.2019 06:00:00 11,6 9,8 8,8 18,8 16,8 4 2 9 5 WNW 1019,4 15 0 0,0
14.07.2019 05:00:00 13,7 11,2 11,4 18,8 16,8 5 3 16 8 NNW 1019,5 20 0 0,0
14.07.2019 04:00:00 14,9 12,2 14,2 18,9 16,7 9 5 18 10 N 1019,9 20 0 0,0
14.07.2019 03:00:00 14,5 12,4 13,0 19,0 16,8 4 2 19 10 WNW 1020,2 20 0 0,0
14.07.2019 02:00:00 13,4 11,6 11,1 19,1 16,8 5 3 15 8 NNW 1020,2 20 0 0,0
14.07.2019 01:00:00 13,3 11,5 9,0 19,1 16,7 8 5 12 6 NW 1020,1 20 0 0,0
14.07.2019 00:00:00 13,9 11,8 11,0 19,2 16,8 6 3 9 5 WNW 1020,3 20 0 0,0
13.07.2019 23:00:00 13,3 10,7 10,5 19,2 16,8 3 2 9 5 NW 1020,3 20 0 0,0
13.07.2019 22:00:00 16,2 12,0 14,4 19,3 16,8 9 5 24 13 NW 1020,0 20 17 0,0
13.07.2019 21:00:00 18,3 11,8 17,6 19,2 16,8 16 9 34 18 NNW 1019,5 20 58 0,0
13.07.2019 20:00:00 20,1 13,3 20,5 19,2 16,8 21 12 38 20 NW 1019,2 20 43 0,0
13.07.2019 19:00:00 21,1 13,8 21,5 19,2 16,8 28 15 39 21 NNW 1018,8 20 33 0,0
13.07.2019 18:00:00 22,6 13,9 21,6 19,1 16,8 16 9 26 14 NNW 1018,8 20 12 0,0
13.07.2019 17:00:00 20,4 15,0 18,9 19,0 16,7 10 5 21 11 NW 1019,2 20 0 0,0
13.07.2019 16:00:00 20,2 13,9 21,0 18,9 16,7 10 5 25 13 NW 1019,3 20 0 0,0
13.07.2019 15:00:00 20,2 13,6 21,9 18,9 16,8 13 7 24 13 NW 1019,6 20 0 0,0
13.07.2019 14:00:00 19,5 13,7 22,0 18,9 16,8 14 7 25 13 W 1019,6 20 0 0,0
13.07.2019 13:00:00 19,3 13,2 21,0 18,8 16,8 9 5 20 11 NW 1019,7 20 0 0,0
13.07.2019 12:00:00 19,1 12,8 23,1 18,8 16,8 13 7 24 13 NW 1019,7 20 0 0,0
13.07.2019 11:00:00 19,2 12,7 20,6 18,8 16,8 11 6 28 15 N 1019,4 20 19 0,0
13.07.2019 10:00:00 18,7 12,7 18,8 18,9 16,8 11 6 27 14 NNW 1019,4 20 30 0,0
13.07.2019 09:00:00 16,8 13,5 15,4 19,0 16,8 9 5 17 9 WNW 1019,3 20 12 0,0
13.07.2019 08:00:00 14,2 12,9 11,3 19,1 16,7 9 5 12 6 NW 1019,0 14 11 0,0
13.07.2019 07:00:00 11,2 10,6 8,9 19,2 16,8 6 3 9 5 WNW 1018,8 11 6 0,0
13.07.2019 06:00:00 9,9 9,1 8,3 19,3 16,8 3 2 5 3 WNW 1018,6 18 0 0,0
13.07.2019 05:00:00 10,0 9,4 7,7 19,5 16,8 2 1 5 3 O 1018,2 12 0 0,0
13.07.2019 04:00:00 9,8 9,0 7,2 19,6 16,8 3 2 9 5 O 1018,0 17 0 0,0
13.07.2019 03:00:00 11,7 10,3 8,7 19,7 16,8 6 3 9 5 NNW 1017,7 20 0 0,0
13.07.2019 02:00:00 12,7 10,8 9,1 19,8 16,8 5 3 9 5 NW 1017,4 20 0 0,0
13.07.2019 01:00:00 13,0 11,7 9,3 19,9 16,8 4 2 8 4 WNW 1017,6 20 0 0,0
13.07.2019 00:00:00 13,7 12,4 9,5 20,0 16,8 4 2 5 3 WNW 1017,3 20 0 0,0
12.07.2019 23:00:00 14,3 11,8 11,4 20,0 16,8 3 2 8 4 N 1016,9 20 0 0,0
12.07.2019 22:00:00 16,8 13,1 13,5 20,0 16,8 3 1 13 7 NNW 1015,9 20 8 0,0
12.07.2019 21:00:00 19,6 13,8 18,9 20,0 16,8 8 5 26 14 NW 1015,0 20 24 0,0
12.07.2019 20:00:00 20,1 14,0 20,1 20,0 16,8 16 9 27 15 NNW 1014,3 20 21 0,0
12.07.2019 19:00:00 19,8 15,9 18,4 19,9 16,8 11 6 31 17 NW 1013,9 20 5 0,2
12.07.2019 18:00:00 20,4 14,7 20,2 19,8 16,8 23 12 67 36 NNW 1013,4 20 16 0,0
12.07.2019 17:00:00 23,5 13,4 25,0 19,7 16,8 31 17 51 28 NW 1012,2 20 31 0,0
12.07.2019 16:00:00 24,9 13,4 25,0 19,6 16,8 30 16 51 27 W 1012,0 20 30 0,0
12.07.2019 15:00:00 25,1 13,0 24,2 19,5 16,8 27 14 52 28 W 1012,1 20 40 0,0
12.07.2019 14:00:00 23,5 13,7 27,0 19,4 16,8 24 13 38 20 WNW 1012,3 20 47 0,0
12.07.2019 13:00:00 23,6 14,9 26,5 19,3 16,8 19 10 35 19 WNW 1012,7 20 42 0,0
12.07.2019 12:00:00 21,4 15,0 26,5 19,3 16,7 19 10 34 18 W 1013,1 19 53 0,0
12.07.2019 11:00:00 20,0 14,8 22,4 19,3 16,8 20 11 31 17 WNW 1013,1 20 34 0,0
12.07.2019 10:00:00 17,7 14,0 20,6 19,4 16,7 16 9 27 15 WNW 1013,2 17 45 0,0
12.07.2019 09:00:00 16,7 13,0 19,3 19,5 16,8 17 9 24 13 WNW 1013,1 20 58 0,0
12.07.2019 08:00:00 15,7 12,8 13,9 19,6 16,8 9 5 15 8 WNW 1012,9 20 56 0,0
12.07.2019 07:00:00 13,6 13,0 11,2 19,7 16,7 5 3 9 5 WNW 1013,0 10 27 0,0
12.07.2019 06:00:00 13,9 13,3 10,9 19,8 16,7 4 2 7 4 WNW 1012,5 13 0 0,0
12.07.2019 05:00:00 13,8 13,0 11,6 19,9 16,8 4 2 12 6 NNW 1012,7 11 0 0,0
12.07.2019 04:00:00 14,4 13,8 11,6 19,9 16,8 4 2 7 4 WNW 1012,7 10 0 0,0
12.07.2019 03:00:00 14,3 13,5 12,4 20,0 16,8 0 0 4 2 N 1012,8 3,5 0 0,0
12.07.2019 02:00:00 15,1 14,1 13,6 20,1 16,7 3 1 7 4 NNW 1013,2 15 0 0,0
12.07.2019 01:00:00 15,1 14,1 13,2 20,1 16,7 2 1 5 3 ZW 1013,3 17 0 0,0
12.07.2019 00:00:00 15,6 14,6 13,1 20,2 16,7 3 1 5 3 NNW 1013,6 18 0 0,0
11.07.2019 23:00:00 16,5 15,0 13,8 20,2 16,8 3 2 6 4 OZO 1013,4 20 0 0,0
11.07.2019 22:00:00 18,6 15,7 15,6 20,2 16,8 3 2 8 4 O 1013,0 18 0 0,0
11.07.2019 21:00:00 21,0 16,6 19,8 20,1 16,8 7 4 12 6 O 1012,5 20 4 0,0
11.07.2019 20:00:00 24,2 15,4 23,8 20,0 16,8 6 3 13 7 ZW 1012,3 20 16 0,0
11.07.2019 19:00:00 25,5 14,6 25,7 19,9 16,8 7 4 17 9 W 1012,0 20 38 0,0
11.07.2019 18:00:00 25,3 14,7 27,3 19,8 16,8 9 5 17 9 NW 1012,4 20 17 0,0
11.07.2019 17:00:00 24,7 14,2 27,8 19,6 16,8 9 5 19 10 WNW 1012,6 20 0 0,0
11.07.2019 16:00:00 24,5 14,0 25,8 19,5 16,8 12 7 26 14 W 1012,9 20 0 0,0
11.07.2019 15:00:00 23,5 14,8 26,7 19,4 16,8 7 4 17 9 WZW 1013,3 20 6 0,0
11.07.2019 14:00:00 22,8 14,9 25,3 19,3 16,8 9 5 21 11 Z 1013,6 20 11 0,0
11.07.2019 13:00:00 21,7 14,8 24,9 19,2 16,8 10 5 22 12 ZZO 1014,0 20 17 0,0
11.07.2019 12:00:00 20,2 16,4 23,5 19,2 16,7 6 4 13 7 OZO 1014,5 20 20 0,0
11.07.2019 11:00:00 18,2 15,8 16,2 19,2 16,8 6 3 25 14 ZO 1015,0 20 10 0,0
11.07.2019 10:00:00 15,8 14,5 15,7 19,3 16,8 9 5 17 9 O 1014,9 18 0 1,8
11.07.2019 09:00:00 16,0 14,9 15,7 19,3 16,8 6 3 12 6 ZO 1015,1 13 0 0,8
11.07.2019 08:00:00 15,5 14,5 15,0 19,4 16,8 2 1 7 4 ZZO 1015,1 20 0 0,2
11.07.2019 07:00:00 15,0 14,2 14,4 19,5 16,8 3 2 5 3 O 1015,1 20 0 0,0
11.07.2019 06:00:00 14,8 13,5 13,9 19,6 16,8 3 2 5 3 ZZW 1015,3 19 0 0,0
11.07.2019 05:00:00 14,4 13,1 12,9 19,7 16,8 0 0 3 2 N 1015,4 20 0 0,0
11.07.2019 04:00:00 14,0 12,6 12,7 19,8 16,8 0 0 2 1 N 1015,6 20 0 0,0
11.07.2019 03:00:00 14,2 12,8 12,3 19,8 16,8 0 0 4 2 N 1016,1 20 0 0,0
11.07.2019 02:00:00 14,4 12,9 11,9 19,9 16,8 0 0 4 2 N 1016,4 20 0 0,0
11.07.2019 01:00:00 15,9 12,8 13,4 19,9 16,8 0 0 9 5 N 1016,7 20 0 0,0
11.07.2019 00:00:00 17,5 13,2 15,2 19,9 16,8 3 2 7 4 WNW 1016,8 20 0 0,0
10.07.2019 23:00:00 19,1 13,1 16,6 19,9 16,8 0 0 12 6 N 1017,1 20 0 0,0
10.07.2019 22:00:00 20,5 13,7 18,9 19,9 16,8 7 4 9 5 WNW 1017,0 20 0 0,0
10.07.2019 21:00:00 21,8 14,4 19,7 19,7 16,8 9 5 11 6 NW 1016,8 20 0 0,0
10.07.2019 20:00:00 23,8 11,8 23,1 19,6 16,8 7 4 17 9 WNW 1016,7 20 32 0,0
10.07.2019 19:00:00 25,4 11,6 26,3 19,5 16,8 10 5 19 11 W 1016,9 20 56 0,0
10.07.2019 18:00:00 25,6 12,1 26,2 19,2 16,8 6 3 16 9 W 1017,2 20 49 0,0
10.07.2019 17:00:00 25,3 10,7 29,5 18,9 16,8 11 6 27 15 W 1017,6 20 53 0,0
10.07.2019 16:00:00 25,2 11,0 31,4 18,7 16,8 10 5 21 12 W 1018,2 20 58 0,0
10.07.2019 15:00:00 23,6 9,6 30,0 18,5 16,8 8 4 23 13 W 1018,8 20 58 0,0
10.07.2019 14:00:00 23,1 8,4 29,7 18,3 16,8 9 5 23 13 WZW 1019,3 20 57 0,0
10.07.2019 13:00:00 22,4 8,1 30,7 18,2 16,8 8 4 19 10 WZW 1019,9 20 60 0,0
10.07.2019 12:00:00 21,7 8,2 29,6 18,2 16,8 4 2 15 8 NNO 1020,2 20 60 0,0
10.07.2019 11:00:00 21,1 9,0 22,7 18,2 16,8 4 2 14 7 ONO 1020,5 20 60 0,0
10.07.2019 10:00:00 18,9 9,4 21,4 18,3 16,8 5 3 14 8 ZZO 1020,8 20 60 0,0
10.07.2019 09:00:00 16,9 9,1 18,1 18,4 16,8 2 1 6 4 O 1021,1 20 60 0,0
10.07.2019 08:00:00 12,1 8,8 11,7 18,5 16,8 3 1 7 4 W 1021,2 20 60 0,0
10.07.2019 07:00:00 8,8 7,7 4,5 18,7 16,8 4 2 6 3 NW 1021,5 20 44 0,0
10.07.2019 06:00:00 6,6 5,4 3,9 18,8 16,8 0 0 4 2 N 1021,5 14 0 0,0
10.07.2019 05:00:00 7,0 5,8 4,3 18,9 16,8 0 0 4 2 N 1021,5 20 0 0,0
10.07.2019 04:00:00 7,4 5,9 4,5 19,1 16,8 0 0 4 2 N 1021,5 20 0 0,0

tt = temperatuur
td = dauwpunt
tt 5cm = temperatuur 5cm
tt -20cm = temperatuur -20cm
tt -100cm = temperatuur -100cm
ff = windsnelheid
fx = windstoten
dd = windrichting
ppp = luchtdruk
vv = zicht
sd = Zonneschijnduur
rr = neerslag

Weerstations in de omgeving